GW1307 Weather Reports


Display with metric or nautical units.
time (UTC)temp
F
wind
direction
speed
MPH
gust
MPH
rain 1hr
in
rain 24hr
in
rain mn
in
humidity
%
barometer
mb
20260506211605 66 201 7.0 13.0 0.00 0.00 0.00 73 1019.3
20260506211553 77 32 1.0 4.0 0.00 0.00 0.00 50 1017.4
20260506210109 65 170 7.0 14.0 0.00 0.00 0.00 75 1019.3
20260506210050 76 103 0.0 4.0 0.00 0.00 0.00 50 1017.5
20260506204558 65 219 8.0 14.0 0.00 0.00 0.00 74 1019.6
20260506204549 76 40 1.0 4.0 0.00 0.00 0.00 51 1017.6
20260506203101 65 219 6.0 15.0 0.00 0.00 0.00 75 1019.7
20260506203047 75 50 1.0 4.0 0.00 0.00 0.00 52 1017.8
20260506201558 64 221 8.0 17.0 0.00 0.00 0.00 75 1019.7
20260506201544 75 32 1.0 5.0 0.00 0.00 0.00 53 1017.8
20260506200140 63 186 7.0 14.0 0.00 0.00 0.00 75 1020.0
20260506200042 73 37 1.0 5.0 0.00 0.00 0.00 54 1017.8
20260506194617 62 186 7.0 14.0 0.00 0.00 0.00 77 1020.0
20260506194539 72 44 0.0 4.0 0.00 0.00 0.00 55 1018.0
20260506193055 62 211 7.0 12.0 0.00 0.00 0.00 77 1020.0
20260506193039 72 34 2.0 4.0 0.00 0.00 0.00 56 1018.2
20260506191600 62 232 5.0 9.0 0.00 0.00 0.00 76 1020.3
20260506191539 71 36 1.0 5.0 0.00 0.00 0.00 57 1018.5
20260506190056 61 236 7.0 14.0 0.00 0.00 0.00 79 1020.4
20260506190035 71 36 1.0 4.0 0.00 0.00 0.00 58 1018.7
20260506184556 61 196 7.0 12.0 0.00 0.00 0.00 76 1020.5
20260506184545 70 215 1.0 5.0 0.00 0.00 0.00 58 1018.7
20260506183055 62 196 6.0 12.0 0.00 0.00 0.00 78 1020.5
20260506183038 69 259 1.0 5.0 0.00 0.00 0.00 59 1018.9
20260506181553 61 207 6.0 11.0 0.00 0.00 0.00 80 1020.6
20260506181537 69 304 0.0 4.0 0.00 0.00 0.00 60 1018.9
20260506180108 60 223 7.0 11.0 0.00 0.00 0.00 80 1020.5
20260506180031 68 336 0.0 5.0 0.00 0.00 0.00 63 1018.9
20260506174555 60 189 7.0 10.0 0.00 0.00 0.00 82 1020.4
20260506174526 67 51 1.0 3.0 0.00 0.00 0.00 64 1019.0
20260506173116 60 186 6.0 10.0 0.00 0.00 0.00 81 1020.5
20260506173020 66 36 1.0 4.0 0.00 0.00 0.00 66 1019.1
20260506171601 60 239 5.0 10.0 0.00 0.00 0.00 81 1020.5
20260506171517 65 266 0.0 2.0 0.00 0.00 0.00 68 1019.1
20260506170058 61 217 4.0 8.0 0.00 0.00 0.00 81 1020.3
20260506170013 63 290 1.0 3.0 0.00 0.00 0.00 70 1019.2
20260506164556 60 162 4.0 7.0 0.00 0.00 0.00 82 1020.5
20260506164512 62 302 0.0 2.0 0.00 0.00 0.00 71 1019.2
20260506163106 60 194 4.0 7.0 0.00 0.00 0.00 81 1020.5
20260506163010 62 301 0.0 4.0 0.00 0.00 0.00 73 1019.2
20260506161559 59 165 4.0 8.0 0.00 0.00 0.00 82 1020.6
20260506161508 61 311 0.0 3.0 0.00 0.00 0.00 74 1019.3
20260506160106 59 213 4.0 7.0 0.00 0.00 0.00 82 1020.6
20260506160004 60 124 0.0 2.0 0.00 0.00 0.00 75 1019.2
20260506154555 59 128 3.0 6.0 0.00 0.00 0.00 82 1020.7
20260506154502 60 273 0.0 2.0 0.00 0.00 0.00 76 1019.3
20260506153057 58 153 4.0 7.0 0.00 0.00 0.00 83 1020.7
20260506153001 60 103 0.0 2.0 0.00 0.00 0.00 76 1019.3
20260506151559 59 260 0.0 3.0 0.00 0.00 0.00 76 1019.3
20260506151555 58 168 2.0 5.0 0.00 0.00 0.00 83 1020.6
20260506150101 58 162 2.0 5.0 0.00 0.00 0.00 84 1020.7
20260506144600 57 165 2.0 4.0 0.00 0.00 0.00 85 1020.7
20260506144558 58 35 0.0 0.0 0.00 0.00 0.00 78 1019.3
20260506143058 57 205 1.0 4.0 0.00 0.00 0.00 86 1020.8
20260506143056 58 34 0.0 0.0 0.00 0.00 0.00 78 1019.4
20260506141604 57 164 1.0 2.0 0.00 0.00 0.00 87 1020.7
20260506141553 58 13 0.0 1.0 0.00 0.00 0.00 79 1019.3
20260506140056 56 0 0.0 2.0 0.00 0.00 0.00 88 1020.5
20260506140053 58 13 0.0 0.0 0.00 0.00 0.00 78 1019.0
20260506134618 56 153 0.0 2.0 0.00 0.00 0.00 87 1020.4
20260506134551 57 15 0.0 0.0 0.00 0.00 0.00 79 1018.8
20260506133058 55 0 0.0 2.0 0.00 0.00 0.00 87 1020.2
20260506133050 57 15 0.0 0.0 0.00 0.00 0.00 79 1018.6
20260506131609 55 334 0.0 2.0 0.00 0.00 0.00 87 1020.1
20260506131554 57 15 0.0 0.0 0.00 0.00 0.00 79 1018.5
20260506130058 55 9 1.0 3.0 0.00 0.00 0.00 87 1019.8
20260506130048 57 15 0.0 0.0 0.00 0.00 0.00 78 1018.4
20260506124556 55 22 0.0 2.0 0.00 0.00 0.00 87 1019.8
20260506124547 57 15 0.0 1.0 0.00 0.00 0.00 78 1018.3
20260506123059 55 9 0.0 3.0 0.00 0.00 0.00 87 1019.7
20260506123046 57 17 0.0 1.0 0.00 0.00 0.00 78 1018.2
20260506121606 55 338 1.0 3.0 0.00 0.00 0.00 87 1019.6
20260506121544 58 17 0.0 2.0 0.00 0.00 0.00 78 1018.1
20260506120056 55 334 1.0 2.0 0.00 0.00 0.00 87 1019.6
20260506120043 58 321 0.0 0.0 0.00 0.00 0.00 78 1018.2
20260506114556 55 309 1.0 2.0 0.00 0.00 0.00 87 1019.4
20260506114544 58 321 0.0 0.0 0.00 0.00 0.00 78 1018.0
20260506113055 55 309 1.0 3.0 0.00 0.00 0.00 87 1019.4
20260506113043 58 319 0.0 2.0 0.00 0.00 0.00 78 1017.9
20260506111612 55 9 2.0 3.0 0.00 0.00 0.00 87 1019.4
20260506111540 58 317 0.0 2.0 0.00 0.00 0.00 79 1017.8
20260506110058 55 338 1.0 3.0 0.00 0.00 0.00 87 1019.2
20260506110039 58 314 0.0 0.0 0.00 0.00 0.00 79 1017.7
20260506104554 55 0 0.0 3.0 0.00 0.00 0.00 87 1019.2
20260506104538 58 313 0.0 0.0 0.00 0.00 0.00 79 1017.6
20260506103105 55 9 1.0 4.0 0.00 0.00 0.00 87 1019.2
20260506103043 58 317 0.0 0.0 0.00 0.00 0.00 79 1017.6
20260506101558 55 9 3.0 5.0 0.00 0.00 0.00 87 1019.2
20260506101536 58 317 0.0 0.0 0.00 0.00 0.00 79 1017.8
20260506100056 55 25 3.0 7.0 0.00 0.00 0.00 87 1019.1
20260506100038 58 317 0.0 1.0 0.00 0.00 0.00 79 1017.6
20260506094556 55 27 2.0 5.0 0.00 0.00 0.00 86 1019.2
20260506094538 58 309 0.0 3.0 0.00 0.00 0.00 78 1017.7
20260506093100 56 347 2.0 7.0 0.00 0.00 0.00 86 1019.3
20260506093035 58 306 0.0 1.0 0.00 0.00 0.00 78 1017.7
20260506091559 56 9 3.0 5.0 0.00 0.00 0.00 86 1019.4
20260506091535 58 14 0.0 0.0 0.00 0.00 0.00 77 1017.8
20260506090034 58 14 0.0 0.0 0.00 0.00 0.00 77 1017.5
20260506084607 56 17 3.0 5.0 0.00 0.00 0.00 86 1019.2
20260506083031 58 13 0.0 2.0 0.00 0.00 0.00 77 1017.7
20260506081555 56 9 2.0 5.0 0.00 0.00 0.00 86 1019.2
20260506081530 58 42 0.0 1.0 0.00 0.00 0.00 77 1017.6
20260506073054 56 30 1.0 3.0 0.00 0.00 0.00 85 1019.0
20260506073026 58 46 0.0 3.0 0.00 0.00 0.00 76 1017.3
20260506071557 57 344 2.0 4.0 0.00 0.00 0.00 85 1019.1
20260506071525 58 43 0.0 0.0 0.00 0.00 0.00 76 1017.2
20260506070124 57 34 1.0 3.0 0.00 0.00 0.00 85 1018.8
20260506061558 57 9 0.0 2.0 0.00 0.00 0.00 84 1018.6
20260506061519 59 15 0.0 1.0 0.00 0.00 0.00 74 1016.7
20260506050108 57 9 2.0 5.0 0.00 0.00 0.00 83 1018.2
20260506044601 57 338 3.0 8.0 0.00 0.00 0.00 82 1018.0
20260506044513 60 180 0.0 1.0 0.00 0.00 0.00 72 1016.1
20260506043058 57 336 2.0 5.0 0.00 0.00 0.00 82 1017.9
20260506043014 60 57 0.0 2.0 0.00 0.00 0.00 71 1015.9
20260506041621 57 9 3.0 8.0 0.00 0.00 0.00 82 1017.8
20260506041510 61 24 0.0 2.0 0.00 0.00 0.00 70 1015.8
20260506040059 57 321 2.0 6.0 0.00 0.00 0.00 82 1017.5
20260506040007 61 13 0.0 0.0 0.00 0.00 0.00 70 1015.7
20260506034600 58 312 3.0 5.0 0.00 0.00 0.00 82 1017.2
20260506034517 61 13 0.0 3.0 0.00 0.00 0.00 70 1015.4
20260506033054 58 311 3.0 5.0 0.00 0.00 0.00 82 1017.0
20260506033006 61 101 0.0 0.0 0.00 0.00 0.00 70 1015.2
20260506031557 58 334 4.0 8.0 0.00 0.00 0.00 82 1016.7
20260506031505 61 49 0.0 0.0 0.00 0.00 0.00 70 1015.1
20260506030054 58 319 2.0 4.0 0.00 0.00 0.00 82 1016.7
20260506030017 61 50 0.0 1.0 0.00 0.00 0.00 70 1014.8
20260506024601 58 323 1.0 3.0 0.00 0.00 0.00 82 1016.4
20260506024510 61 37 0.0 4.0 0.00 0.00 0.00 70 1014.6
20260506023056 58 279 1.0 2.0 0.00 0.00 0.00 83 1016.5
20260506023008 62 30 0.0 3.0 0.00 0.00 0.00 70 1014.6
20260506021554 58 0 0.0 2.0 0.00 0.00 0.00 83 1016.4
20260506021502 62 51 0.0 1.0 0.00 0.00 0.00 69 1014.7
20260506020108 58 0 0.0 3.0 0.00 0.00 0.00 83 1016.5
20260506020002 62 54 0.0 0.0 0.00 0.00 0.00 68 1014.7
20260506014609 58 178 2.0 7.0 0.00 0.00 0.00 83 1016.4
20260506014501 63 36 0.0 0.0 0.00 0.00 0.00 67 1014.7
20260506013056 58 309 1.0 7.0 0.00 0.00 0.00 83 1016.5
20260506013001 63 36 0.0 0.0 0.00 0.00 0.00 67 1014.7
20260506011622 58 205 5.0 10.0 0.00 0.00 0.00 83 1016.5
20260506011610 63 36 0.0 0.0 0.00 0.00 0.00 67 1014.6
20260506010100 63 273 0.0 1.0 0.00 0.00 0.00 67 1014.6
20260506010059 58 225 5.0 8.0 0.00 0.00 0.00 83 1016.5
20260506004604 58 183 4.0 9.0 0.00 0.00 0.00 83 1016.4
20260506004559 63 47 0.0 1.0 0.00 0.00 0.00 67 1014.7
20260506003059 63 47 0.0 3.0 0.00 0.00 0.00 66 1014.5
20260506003056 58 226 5.0 9.0 0.00 0.00 0.00 83 1016.1
20260506001558 63 31 1.0 3.0 0.00 0.00 0.00 66 1014.4
20260506001556 58 190 5.0 13.0 0.00 0.00 0.00 82 1016.2
20260506000119 58 213 7.0 12.0 0.00 0.00 0.00 81 1016.2
20260506000101 63 31 0.0 1.0 0.00 0.00 0.00 66 1014.3
20260505234558 63 31 0.0 2.0 0.00 0.00 0.00 67 1014.3
20260505234555 57 196 6.0 14.0 0.00 0.00 0.00 81 1016.1
20260505233100 58 191 7.0 13.0 0.00 0.00 0.00 83 1016.2
20260505233057 63 30 0.0 2.0 0.00 0.00 0.00 67 1014.3
20260505231612 58 230 7.0 13.0 0.00 0.00 0.00 84 1016.2
20260505231556 63 47 0.0 2.0 0.00 0.00 0.00 68 1014.4
20260505230106 58 217 7.0 12.0 0.00 0.00 0.00 84 1016.2
20260505230104 63 48 0.0 2.0 0.00 0.00 0.00 67 1014.4
20260505224600 57 178 9.0 13.0 0.00 0.00 0.00 85 1016.2
20260505224555 63 48 0.0 3.0 0.00 0.00 0.00 67 1014.5
20260505223107 63 288 0.0 0.0 0.00 0.00 0.00 67 1014.5
20260505223055 57 196 8.0 14.0 0.00 0.00 0.00 86 1016.6
20260505221559 57 191 9.0 13.0 0.00 0.00 0.00 87 1016.7
20260505221553 63 292 0.0 3.0 0.00 0.00 0.00 66 1014.6
20260505220059 57 182 8.0 11.0 0.00 0.00 0.00 86 1016.8
20260505220052 62 243 1.0 4.0 0.00 0.00 0.00 67 1014.7
20260505214556 57 189 8.0 11.0 0.00 0.00 0.00 87 1016.6
20260505214551 62 34 0.0 3.0 0.00 0.00 0.00 68 1014.7
20260505213057 57 188 6.0 11.0 0.00 0.00 0.00 87 1016.9